Time,TemperatureF,DewpointF,PressureIn,WindDirection,WindDirectionDegrees,WindSpeedMPH,WindSpeedGustMPH,Humidity,HourlyPrecipIn,Conditions,Clouds,dailyrainin,SoftwareType,DateUTC
2013-09-05 00:01:00,59.6,57.6,29.96,SW,215,0.0,0.0,93,0.00,,CLR,0.01,VWS V14.01,2013-09-05 04:01:00,
2013-09-05 00:02:00,59.6,57.6,29.95,SW,215,0.0,0.0,93,0.00,,CLR,0.01,VWS V14.01,2013-09-05 04:02:00,
2013-09-05 00:07:00,59.8,57.8,29.95,SW,215,0.0,0.0,93,0.00,,CLR,0.00,VWS V14.01,2013-09-05 04:07:00,
2013-09-05 00:12:00,60.2,57.9,29.96,SW,215,0.0,0.0,92,0.00,,CLR,0.00,VWS V14.01,2013-09-05 04:12:00,
2013-09-05 00:17:00,60.4,57.8,29.95,SW,215,0.0,0.0,91,0.00,,CLR,0.00,VWS V14.01,2013-09-05 04:17:00,
2013-09-05 00:22:00,60.7,57.8,29.95,SW,215,0.0,0.0,90,0.00,,CLR,0.00,VWS V14.01,2013-09-05 04:22:00,
2013-09-05 00:27:00,60.9,58.0,29.95,SW,215,0.0,0.0,90,0.00,,CLR,0.00,VWS V14.01,2013-09-05 04:27:00,
2013-09-05 00:32:00,60.9,57.6,29.95,SW,215,0.0,0.0,89,0.00,,CLR,0.00,VWS V14.01,2013-09-05 04:32:00,
2013-09-05 00:37:00,60.9,57.6,29.95,SW,215,0.0,0.0,89,0.00,,CLR,0.00,VWS V14.01,2013-09-05 04:37:00,
2013-09-05 00:42:00,61.0,57.4,29.95,SW,215,0.0,0.0,88,0.00,,CLR,0.00,VWS V14.01,2013-09-05 04:42:00,
2013-09-05 00:47:00,61.5,57.9,29.95,West,267,0.0,2.0,88,0.00,,CLR,0.00,VWS V14.01,2013-09-05 04:47:00,
2013-09-05 00:52:00,61.8,57.9,29.94,West,281,0.0,4.0,87,0.00,,CLR,0.00,VWS V14.01,2013-09-05 04:52:00,
2013-09-05 00:57:00,62.1,57.9,29.94,West,268,0.0,0.0,86,0.00,,CLR,0.00,VWS V14.01,2013-09-05 04:57:00,
2013-09-05 01:02:00,62.4,57.8,29.94,WNW,284,1.0,1.0,85,0.00,,CLR,0.00,VWS V14.01,2013-09-05 05:02:00,
2013-09-05 01:07:00,62.6,58.0,29.94,WNW,284,0.0,2.0,85,0.00,,CLR,0.00,VWS V14.01,2013-09-05 05:07:00,
2013-09-05 01:12:00,62.4,57.8,29.94,WNW,284,0.0,0.0,85,0.00,,CLR,0.00,VWS V14.01,2013-09-05 05:12:00,
2013-09-05 01:17:00,62.2,58.0,29.93,WNW,284,0.0,0.0,86,0.00,,CLR,0.00,VWS V14.01,2013-09-05 05:17:00,
2013-09-05 01:22:00,62.1,57.5,29.93,WNW,284,0.0,1.0,85,0.00,,CLR,0.00,VWS V14.01,2013-09-05 05:22:00,
2013-09-05 01:27:00,62.3,58.1,29.93,WNW,284,0.0,0.0,86,0.00,,CLR,0.00,VWS V14.01,2013-09-05 05:27:00,
2013-09-05 01:32:00,62.0,57.8,29.93,WNW,284,0.0,0.0,86,0.00,,CLR,0.00,VWS V14.01,2013-09-05 05:32:00,
2013-09-05 01:37:00,61.7,57.8,29.93,WNW,284,0.0,0.0,87,0.00,,CLR,0.00,VWS V14.01,2013-09-05 05:37:00,
2013-09-05 01:42:00,61.3,57.7,29.93,WNW,284,0.0,0.0,88,0.00,,CLR,0.00,VWS V14.01,2013-09-05 05:42:00,
2013-09-05 01:47:00,61.0,57.7,29.93,WNW,284,0.0,0.0,89,0.00,,CLR,0.00,VWS V14.01,2013-09-05 05:47:00,
2013-09-05 01:52:00,60.7,57.4,29.93,WNW,283,0.0,0.0,89,0.00,,CLR,0.00,VWS V14.01,2013-09-05 05:52:00,
2013-09-05 01:57:00,60.4,57.2,29.93,WNW,283,1.0,1.0,89,0.00,,CLR,0.00,VWS V14.01,2013-09-05 05:57:00,
2013-09-05 02:02:00,60.4,57.5,29.93,SW,223,0.0,2.0,90,0.00,,CLR,0.00,VWS V14.01,2013-09-05 06:02:00,
2013-09-05 02:07:00,60.6,57.7,29.93,SW,223,0.0,0.0,90,0.00,,CLR,0.00,VWS V14.01,2013-09-05 06:07:00,
2013-09-05 02:12:00,60.7,57.8,29.93,SW,223,0.0,0.0,90,0.00,,CLR,0.00,VWS V14.01,2013-09-05 06:12:00,
2013-09-05 02:17:00,60.7,57.8,29.93,SW,223,0.0,0.0,90,0.00,,CLR,0.00,VWS V14.01,2013-09-05 06:17:00,
2013-09-05 02:22:00,60.7,57.8,29.93,SW,223,1.0,1.0,90,0.00,,CLR,0.00,VWS V14.01,2013-09-05 06:22:00,
2013-09-05 02:27:00,60.7,57.8,29.93,SW,223,0.0,0.0,90,0.00,,CLR,0.00,VWS V14.01,2013-09-05 06:27:00,
2013-09-05 02:32:00,60.7,57.8,29.93,SW,217,0.0,0.0,90,0.00,,CLR,0.00,VWS V14.01,2013-09-05 06:32:00,
2013-09-05 02:37:00,60.7,57.4,29.93,SW,217,0.0,0.0,89,0.00,,CLR,0.00,VWS V14.01,2013-09-05 06:37:00,
2013-09-05 02:42:00,60.7,57.8,29.93,SW,217,0.0,0.0,90,0.00,,CLR,0.00,VWS V14.01,2013-09-05 06:42:00,
2013-09-05 02:47:00,60.7,57.4,29.93,SW,217,0.0,0.0,89,0.00,,CLR,0.00,VWS V14.01,2013-09-05 06:47:00,
2013-09-05 02:52:00,60.7,57.8,29.93,SW,217,0.0,0.0,90,0.00,,CLR,0.00,VWS V14.01,2013-09-05 06:52:00,
2013-09-05 02:57:00,60.6,57.7,29.93,SW,216,0.0,0.0,90,0.00,,CLR,0.00,VWS V14.01,2013-09-05 06:57:00,
2013-09-05 03:02:00,60.4,57.5,29.92,SW,216,0.0,0.0,90,0.00,,CLR,0.00,VWS V14.01,2013-09-05 07:02:00,
2013-09-05 03:07:00,60.3,57.7,29.93,SW,216,0.0,0.0,91,0.00,,CLR,0.00,VWS V14.01,2013-09-05 07:07:00,
2013-09-05 03:12:00,60.2,57.6,29.93,SW,216,0.0,0.0,91,0.00,,CLR,0.00,VWS V14.01,2013-09-05 07:12:00,
2013-09-05 03:17:00,60.2,57.6,29.92,SW,216,0.0,0.0,91,0.00,,CLR,0.00,VWS V14.01,2013-09-05 07:17:00,
2013-09-05 03:22:00,60.4,57.8,29.92,SW,216,1.0,2.0,91,0.00,,CLR,0.00,VWS V14.01,2013-09-05 07:22:00,
2013-09-05 03:27:00,60.8,58.2,29.92,SW,216,2.0,2.0,91,0.00,,CLR,0.00,VWS V14.01,2013-09-05 07:27:00,
2013-09-05 03:32:00,61.0,58.0,29.92,SW,216,0.0,1.0,90,0.00,,CLR,0.00,VWS V14.01,2013-09-05 07:32:00,
2013-09-05 03:37:00,61.4,58.1,29.92,SW,216,2.0,3.0,89,0.00,,CLR,0.00,VWS V14.01,2013-09-05 07:37:00,
2013-09-05 03:42:00,61.5,57.9,29.92,SW,216,0.0,0.0,88,0.00,,CLR,0.00,VWS V14.01,2013-09-05 07:42:00,
2013-09-05 03:47:00,61.6,58.0,29.92,SW,216,0.0,1.0,88,0.00,,CLR,0.00,VWS V14.01,2013-09-05 07:47:00,
2013-09-05 03:52:00,61.6,58.0,29.92,SW,215,0.0,0.0,88,0.00,,CLR,0.00,VWS V14.01,2013-09-05 07:52:00,
2013-09-05 03:57:00,61.6,58.0,29.92,SW,215,0.0,1.0,88,0.00,,CLR,0.00,VWS V14.01,2013-09-05 07:57:00,
2013-09-05 04:02:00,61.5,57.9,29.92,SW,215,0.0,0.0,88,0.00,,CLR,0.00,VWS V14.01,2013-09-05 08:02:00,
2013-09-05 04:07:00,61.4,57.8,29.91,SW,215,0.0,0.0,88,0.00,,CLR,0.00,VWS V14.01,2013-09-05 08:07:00,
2013-09-05 04:12:00,61.2,57.6,29.91,SW,215,0.0,0.0,88,0.00,,CLR,0.00,VWS V14.01,2013-09-05 08:12:00,
2013-09-05 04:17:00,60.9,57.6,29.91,SW,215,0.0,0.0,89,0.00,,CLR,0.00,VWS V14.01,2013-09-05 08:17:00,
2013-09-05 04:22:00,60.5,57.6,29.91,SW,215,0.0,0.0,90,0.00,,CLR,0.00,VWS V14.01,2013-09-05 08:22:00,
2013-09-05 04:27:00,60.4,57.5,29.91,SW,215,0.0,0.0,90,0.00,,CLR,0.00,VWS V14.01,2013-09-05 08:27:00,
2013-09-05 04:32:00,60.2,57.0,29.91,SW,215,0.0,0.0,89,0.00,,CLR,0.00,VWS V14.01,2013-09-05 08:32:00,
2013-09-05 04:37:00,60.1,57.2,29.91,SW,215,0.0,0.0,90,0.00,,CLR,0.00,VWS V14.01,2013-09-05 08:37:00,
2013-09-05 04:42:00,59.8,57.2,29.91,SW,215,0.0,0.0,91,0.00,,CLR,0.00,VWS V14.01,2013-09-05 08:42:00,
2013-09-05 04:47:00,59.8,57.2,29.91,SW,215,0.0,0.0,91,0.00,,CLR,0.00,VWS V14.01,2013-09-05 08:47:00,
2013-09-05 04:52:00,59.8,57.2,29.91,SW,215,0.0,0.0,91,0.00,,CLR,0.00,VWS V14.01,2013-09-05 08:52:00,
2013-09-05 04:57:00,59.8,57.5,29.92,SW,214,0.0,0.0,92,0.00,,CLR,0.00,VWS V14.01,2013-09-05 08:57:00,
2013-09-05 05:02:00,59.8,57.5,29.91,SW,214,0.0,0.0,92,0.00,,CLR,0.00,VWS V14.01,2013-09-05 09:02:00,
2013-09-05 05:07:00,59.7,57.4,29.92,SW,214,0.0,1.0,92,0.00,,CLR,0.00,VWS V14.01,2013-09-05 09:07:00,
2013-09-05 05:12:00,59.6,57.6,29.92,SW,214,0.0,1.0,93,0.00,,CLR,0.00,VWS V14.01,2013-09-05 09:12:00,
2013-09-05 05:17:00,59.7,57.4,29.92,SW,214,0.0,0.0,92,0.00,,CLR,0.00,VWS V14.01,2013-09-05 09:17:00,
2013-09-05 05:22:00,59.5,57.5,29.92,SW,214,0.0,1.0,93,0.00,,CLR,0.00,VWS V14.01,2013-09-05 09:22:00,
2013-09-05 05:27:00,59.4,57.1,29.92,SW,214,0.0,0.0,92,0.00,,CLR,0.00,VWS V14.01,2013-09-05 09:27:00,
2013-09-05 05:32:00,59.0,56.7,29.92,SW,214,0.0,0.0,92,0.00,,CLR,0.00,VWS V14.01,2013-09-05 09:32:00,
2013-09-05 05:37:00,58.9,56.9,29.92,SSW,213,0.0,0.0,93,0.00,,CLR,0.00,VWS V14.01,2013-09-05 09:37:00,
2013-09-05 05:42:00,58.6,56.6,29.93,SSW,202,0.0,0.0,93,0.00,,CLR,0.00,VWS V14.01,2013-09-05 09:42:00,
2013-09-05 05:47:00,58.4,56.7,29.92,SSW,199,0.0,0.0,94,0.00,,CLR,0.00,VWS V14.01,2013-09-05 09:47:00,
2013-09-05 05:52:00,58.4,56.7,29.92,SSW,199,0.0,0.0,94,0.00,,CLR,0.00,VWS V14.01,2013-09-05 09:52:00,
2013-09-05 05:57:00,58.3,56.9,29.92,SSW,207,0.0,0.0,95,0.00,,CLR,0.00,VWS V14.01,2013-09-05 09:57:00,
2013-09-05 06:02:00,58.3,56.9,29.92,SSW,206,0.0,0.0,95,0.00,,CLR,0.00,VWS V14.01,2013-09-05 10:02:00,
2013-09-05 06:07:00,58.3,56.9,29.92,SSW,205,0.0,2.0,95,0.00,,SCT120,0.00,VWS V14.01,2013-09-05 10:07:00,
2013-09-05 06:12:00,58.4,57.0,29.92,SSW,205,0.0,0.0,95,0.00,,SCT120,0.00,VWS V14.01,2013-09-05 10:12:00,
2013-09-05 06:17:00,58.6,57.2,29.92,SSW,205,0.0,1.0,95,0.00,,SCT120,0.00,VWS V14.01,2013-09-05 10:17:00,
2013-09-05 06:22:00,58.6,57.5,29.93,SSW,205,0.0,1.0,96,0.00,,SCT120,0.00,VWS V14.01,2013-09-05 10:22:00,
2013-09-05 06:27:00,58.8,57.4,29.93,SSW,204,0.0,0.0,95,0.00,,SCT120,0.00,VWS V14.01,2013-09-05 10:27:00,
2013-09-05 06:32:00,58.9,57.8,29.93,SSW,204,0.0,0.0,96,0.00,,SCT120,0.00,VWS V14.01,2013-09-05 10:32:00,
2013-09-05 06:37:00,58.9,57.5,29.93,SSW,203,0.0,0.0,95,0.00,,SCT120,0.00,VWS V14.01,2013-09-05 10:37:00,
2013-09-05 06:42:00,58.9,57.5,29.93,SSW,204,0.0,0.0,95,0.00,,SCT120,0.00,VWS V14.01,2013-09-05 10:42:00,
2013-09-05 06:47:00,59.0,57.6,29.93,SSW,203,0.0,0.0,95,0.00,,SCT120,0.00,VWS V14.01,2013-09-05 10:47:00,
2013-09-05 06:52:00,59.0,57.6,29.92,SSW,204,0.0,0.0,95,0.00,,SCT120,0.00,VWS V14.01,2013-09-05 10:52:00,
2013-09-05 06:57:00,59.0,57.3,29.92,SSW,206,0.0,0.0,94,0.00,,SCT120,0.00,VWS V14.01,2013-09-05 10:57:00,
2013-09-05 07:02:00,59.2,57.5,29.93,SSW,207,0.0,0.0,94,0.00,,SCT120,0.00,VWS V14.01,2013-09-05 11:02:00,
2013-09-05 07:07:00,59.5,57.8,29.93,SSW,206,0.0,0.0,94,0.00,,SCT120,0.00,VWS V14.01,2013-09-05 11:07:00,
2013-09-05 07:12:00,59.6,58.2,29.93,SSW,205,0.0,0.0,95,0.00,,SCT120,0.00,VWS V14.01,2013-09-05 11:12:00,
2013-09-05 07:17:00,59.6,58.2,29.93,SSW,204,0.0,0.0,95,0.00,,SCT120,0.00,VWS V14.01,2013-09-05 11:17:00,
2013-09-05 07:22:00,59.8,58.1,29.94,SSW,208,0.0,3.0,94,0.00,,SCT120,0.00,VWS V14.01,2013-09-05 11:22:00,
2013-09-05 07:27:00,60.0,58.6,29.94,SSW,203,0.0,1.0,95,0.00,,SCT120,0.00,VWS V14.01,2013-09-05 11:27:00,
2013-09-05 07:32:00,60.1,58.7,29.94,SSW,202,0.0,1.0,95,0.00,,SCT120,0.00,VWS V14.01,2013-09-05 11:32:00,
2013-09-05 07:37:00,60.2,58.5,29.94,SSW,198,0.0,3.0,94,0.00,,SCT120,0.00,VWS V14.01,2013-09-05 11:37:00,
2013-09-05 07:42:00,60.4,58.7,29.94,ESE,117,0.0,2.0,94,0.00,,SCT120,0.00,VWS V14.01,2013-09-05 11:42:00,
2013-09-05 07:47:00,60.4,58.7,29.94,ESE,110,0.0,0.0,94,0.00,,SCT120,0.00,VWS V14.01,2013-09-05 11:47:00,
2013-09-05 07:52:00,60.5,58.8,29.94,East,98,0.0,0.0,94,0.00,,SCT120,0.00,VWS V14.01,2013-09-05 11:52:00,
2013-09-05 07:57:00,60.7,58.7,29.94,East,97,0.0,0.0,93,0.00,,SCT120,0.00,VWS V14.01,2013-09-05 11:57:00,
2013-09-05 08:02:00,61.0,59.0,29.94,East,91,0.0,0.0,93,0.00,,SCT120,0.00,VWS V14.01,2013-09-05 12:02:00,
2013-09-05 08:07:00,61.0,59.3,29.94,SW,219,0.0,0.0,94,0.00,,BKN200,0.00,VWS V14.01,2013-09-05 12:07:00,
2013-09-05 08:12:00,61.2,59.2,29.94,SW,219,0.0,1.0,93,0.00,,BKN200,0.00,VWS V14.01,2013-09-05 12:12:00,
2013-09-05 08:17:00,61.4,59.4,29.94,SW,219,0.0,0.0,93,0.00,,BKN200,0.00,VWS V14.01,2013-09-05 12:17:00,
2013-09-05 08:22:00,61.5,59.5,29.94,SW,219,0.0,0.0,93,0.00,,BKN200,0.00,VWS V14.01,2013-09-05 12:22:00,
2013-09-05 08:27:00,61.7,59.7,29.94,SW,219,0.0,0.0,93,0.00,,BKN200,0.00,VWS V14.01,2013-09-05 12:27:00,
2013-09-05 08:32:00,61.8,59.8,29.94,SW,219,0.0,0.0,93,0.00,,BKN200,0.00,VWS V14.01,2013-09-05 12:32:00,
2013-09-05 08:37:00,61.8,59.8,29.94,SW,219,0.0,0.0,93,0.00,,BKN200,0.00,VWS V14.01,2013-09-05 12:37:00,
2013-09-05 08:42:00,61.8,59.8,29.95,SW,219,0.0,0.0,93,0.00,,BKN200,0.00,VWS V14.01,2013-09-05 12:42:00,
2013-09-05 08:47:00,62.0,59.7,29.95,SW,219,0.0,0.0,92,0.00,,BKN200,0.00,VWS V14.01,2013-09-05 12:47:00,
2013-09-05 08:52:00,62.1,59.8,29.95,SW,219,0.0,1.0,92,0.00,,BKN200,0.00,VWS V14.01,2013-09-05 12:52:00,
2013-09-05 08:57:00,62.4,60.0,29.95,SW,219,0.0,0.0,92,0.00,,BKN200,0.00,VWS V14.01,2013-09-05 12:57:00,
2013-09-05 09:02:00,62.6,60.2,29.95,SW,219,0.0,0.0,92,0.00,,BKN200,0.00,VWS V14.01,2013-09-05 13:02:00,
2013-09-05 09:06:00,62.9,60.2,29.95,SW,219,0.0,0.0,91,0.00,,OVC095,0.00,VWS V14.01,2013-09-05 13:06:00,
2013-09-05 09:11:00,63.0,60.3,29.95,NNW,343,0.0,3.0,91,0.00,,OVC095,0.00,VWS V14.01,2013-09-05 13:11:00,
2013-09-05 09:16:00,63.5,60.2,29.95,West,263,3.0,3.0,89,0.00,,OVC095,0.00,VWS V14.01,2013-09-05 13:16:00,
2013-09-05 09:21:00,64.2,60.6,29.96,NW,313,0.0,3.0,88,0.00,,OVC095,0.00,VWS V14.01,2013-09-05 13:21:00,
2013-09-05 09:26:00,64.7,60.1,29.96,East,79,0.0,3.0,85,0.00,,OVC095,0.00,VWS V14.01,2013-09-05 13:26:00,
2013-09-05 09:31:00,65.6,60.3,29.95,NE,49,1.0,3.0,83,0.00,,OVC095,0.00,VWS V14.01,2013-09-05 13:31:00,
2013-09-05 09:36:00,66.2,60.5,29.96,SW,224,0.0,0.0,82,0.00,,OVC095,0.00,VWS V14.01,2013-09-05 13:36:00,
2013-09-05 09:41:00,66.7,60.7,29.96,NW,310,1.0,1.0,81,0.00,,OVC095,0.00,VWS V14.01,2013-09-05 13:41:00,
2013-09-05 09:46:00,67.5,61.5,29.96,NNE,23,3.0,9.0,81,0.00,,OVC095,0.00,VWS V14.01,2013-09-05 13:46:00,
2013-09-05 09:51:00,67.4,60.0,29.96,WSW,257,2.0,4.0,77,0.00,,OVC095,0.00,VWS V14.01,2013-09-05 13:51:00,
2013-09-05 09:56:00,67.2,60.1,29.96,WSW,251,0.0,3.0,78,0.00,,OVC095,0.00,VWS V14.01,2013-09-05 13:56:00,
2013-09-05 10:01:00,66.7,59.6,29.96,NW,320,1.0,4.0,78,0.00,,OVC095,0.00,VWS V14.01,2013-09-05 14:01:00,
2013-09-05 10:06:00,66.4,59.3,29.96,ENE,70,0.0,2.0,78,0.00,,BKN200,0.00,VWS V14.01,2013-09-05 14:06:00,
2013-09-05 10:11:00,66.2,59.5,29.97,NE,50,2.0,2.0,79,0.00,,BKN200,0.00,VWS V14.01,2013-09-05 14:11:00,
2013-09-05 10:16:00,66.0,58.2,29.97,ENE,66,1.0,12.0,76,0.00,,BKN200,0.00,VWS V14.01,2013-09-05 14:16:00,
2013-09-05 10:21:00,66.2,58.4,29.97,WNW,288,1.0,3.0,76,0.00,,BKN200,0.00,VWS V14.01,2013-09-05 14:21:00,
2013-09-05 10:26:00,66.4,58.2,29.97,West,262,1.0,3.0,75,0.00,,BKN200,0.00,VWS V14.01,2013-09-05 14:26:00,
2013-09-05 10:31:00,66.5,58.7,29.97,SE,130,2.0,4.0,76,0.00,,BKN200,0.00,VWS V14.01,2013-09-05 14:31:00,
2013-09-05 10:36:00,67.0,58.8,29.97,SSW,204,1.0,4.0,75,0.00,,BKN200,0.00,VWS V14.01,2013-09-05 14:36:00,
2013-09-05 10:41:00,67.2,57.9,29.97,North,353,0.0,5.0,72,0.00,,BKN200,0.00,VWS V14.01,2013-09-05 14:41:00,
2013-09-05 10:46:00,67.4,58.8,29.97,South,169,1.0,2.0,74,0.00,,BKN200,0.00,VWS V14.01,2013-09-05 14:46:00,
2013-09-05 10:51:00,67.5,58.5,29.97,NNW,329,0.0,2.0,73,0.00,,BKN200,0.00,VWS V14.01,2013-09-05 14:51:00,
2013-09-05 10:56:00,67.7,58.4,29.97,North,358,2.0,7.0,72,0.00,,BKN200,0.00,VWS V14.01,2013-09-05 14:56:00,
2013-09-05 11:01:00,67.9,57.8,29.97,NNE,30,0.0,5.0,70,0.00,,BKN200,0.00,VWS V14.01,2013-09-05 15:01:00,
2013-09-05 11:06:00,67.9,57.4,29.97,West,261,2.0,5.0,69,0.00,,BKN100,0.00,VWS V14.01,2013-09-05 15:06:00,
2013-09-05 11:11:00,68.2,56.8,29.97,ENE,73,4.0,11.0,67,0.00,,BKN100,0.00,VWS V14.01,2013-09-05 15:11:00,
2013-09-05 11:16:00,68.0,56.7,29.97,NE,55,1.0,5.0,67,0.00,,BKN100,0.00,VWS V14.01,2013-09-05 15:16:00,
2013-09-05 11:21:00,67.9,57.0,29.96,WNW,303,1.0,3.0,68,0.00,,BKN100,0.00,VWS V14.01,2013-09-05 15:21:00,
2013-09-05 11:26:00,67.7,57.2,29.97,North,8,0.0,2.0,69,0.00,,BKN100,0.00,VWS V14.01,2013-09-05 15:26:00,
2013-09-05 11:31:00,67.7,57.6,29.97,NE,35,1.0,6.0,70,0.00,,BKN100,0.00,VWS V14.01,2013-09-05 15:31:00,
2013-09-05 11:36:00,67.7,57.6,29.97,North,10,4.0,4.0,70,0.00,,BKN100,0.00,VWS V14.01,2013-09-05 15:36:00,
2013-09-05 11:41:00,67.5,57.4,29.97,North,357,0.0,2.0,70,0.00,,BKN100,0.00,VWS V14.01,2013-09-05 15:41:00,
2013-09-05 11:46:00,67.7,57.6,29.97,North,359,1.0,3.0,70,0.00,,BKN100,0.00,VWS V14.01,2013-09-05 15:46:00,
2013-09-05 11:51:00,67.9,56.5,29.97,WSW,246,0.0,2.0,67,0.00,,BKN100,0.00,VWS V14.01,2013-09-05 15:51:00,
2013-09-05 11:56:00,68.3,56.9,29.97,West,259,4.0,5.0,67,0.00,,BKN100,0.00,VWS V14.01,2013-09-05 15:56:00,
2013-09-05 12:01:00,68.5,56.7,29.97,West,261,1.0,2.0,66,0.00,,BKN100,0.00,VWS V14.01,2013-09-05 16:01:00,
2013-09-05 12:06:00,68.5,56.3,29.97,North,353,3.0,3.0,65,0.00,,BKN250,0.00,VWS V14.01,2013-09-05 16:06:00,
2013-09-05 12:11:00,68.3,55.7,29.97,West,268,2.0,3.0,64,0.00,,BKN250,0.00,VWS V14.01,2013-09-05 16:11:00,
2013-09-05 12:16:00,68.5,55.0,29.97,North,10,1.0,5.0,62,0.00,,BKN250,0.00,VWS V14.01,2013-09-05 16:16:00,
2013-09-05 12:21:00,69.0,55.5,29.97,SSE,158,5.0,5.0,62,0.00,,BKN250,0.00,VWS V14.01,2013-09-05 16:21:00,
2013-09-05 12:26:00,69.2,53.8,29.97,North,5,0.0,4.0,58,0.00,,BKN250,0.00,VWS V14.01,2013-09-05 16:26:00,
2013-09-05 12:31:00,69.3,52.0,29.97,NNE,24,8.0,8.0,54,0.00,,BKN250,0.00,VWS V14.01,2013-09-05 16:31:00,
2013-09-05 12:36:00,69.7,52.3,29.98,SW,231,5.0,5.0,54,0.00,,BKN250,0.00,VWS V14.01,2013-09-05 16:36:00,
2013-09-05 12:41:00,70.2,52.8,29.98,South,184,1.0,2.0,54,0.00,,BKN250,0.00,VWS V14.01,2013-09-05 16:41:00,
2013-09-05 12:46:00,70.5,52.6,29.98,NNE,33,1.0,12.0,53,0.00,,BKN250,0.00,VWS V14.01,2013-09-05 16:46:00,
2013-09-05 12:51:00,70.1,52.7,29.98,North,354,2.0,2.0,54,0.00,,BKN250,0.00,VWS V14.01,2013-09-05 16:51:00,
2013-09-05 12:56:00,70.1,52.7,29.98,North,358,0.0,4.0,54,0.00,,BKN250,0.00,VWS V14.01,2013-09-05 16:56:00,
2013-09-05 13:01:00,70.0,53.6,29.98,NNW,334,1.0,2.0,56,0.00,,BKN250,0.00,VWS V14.01,2013-09-05 17:01:00,
2013-09-05 13:06:00,70.4,54.5,29.98,East,96,0.0,4.0,57,0.00,,BKN200,0.00,VWS V14.01,2013-09-05 17:06:00,
2013-09-05 13:11:00,70.2,52.8,29.98,NNW,327,1.0,9.0,54,0.00,,BKN200,0.00,VWS V14.01,2013-09-05 17:11:00,
2013-09-05 13:16:00,70.1,52.7,29.98,NE,36,1.0,3.0,54,0.00,,BKN200,0.00,VWS V14.01,2013-09-05 17:16:00,
2013-09-05 13:21:00,70.4,51.4,29.98,WSW,247,1.0,4.0,51,0.00,,BKN200,0.00,VWS V14.01,2013-09-05 17:21:00,
2013-09-05 13:26:00,70.6,52.7,29.98,SW,233,2.0,3.0,53,0.00,,BKN200,0.00,VWS V14.01,2013-09-05 17:26:00,
2013-09-05 13:31:00,71.0,54.0,29.98,NNW,335,2.0,3.0,55,0.00,,BKN200,0.00,VWS V14.01,2013-09-05 17:31:00,
2013-09-05 13:36:00,71.1,53.1,29.97,WSW,238,0.0,3.0,53,0.00,,BKN200,0.00,VWS V14.01,2013-09-05 17:36:00,
2013-09-05 13:41:00,72.0,54.5,29.98,NNW,347,1.0,3.0,54,0.00,,BKN200,0.00,VWS V14.01,2013-09-05 17:41:00,
2013-09-05 13:46:00,72.1,54.0,29.98,SSW,206,0.0,3.0,53,0.00,,BKN200,0.00,VWS V14.01,2013-09-05 17:46:00,
2013-09-05 13:51:00,72.1,54.0,29.98,SSW,206,0.0,1.0,53,0.00,,BKN200,0.00,VWS V14.01,2013-09-05 17:51:00,
2013-09-05 13:56:00,72.7,55.6,29.98,SSW,206,0.0,1.0,55,0.00,,BKN200,0.00,VWS V14.01,2013-09-05 17:56:00,
2013-09-05 14:01:00,72.0,55.5,29.97,South,180,0.0,2.0,56,0.00,,BKN200,0.00,VWS V14.01,2013-09-05 18:01:00,
2013-09-05 14:06:00,71.3,55.3,29.98,West,264,0.0,4.0,57,0.00,,BKN250,0.00,VWS V14.01,2013-09-05 18:06:00,
2013-09-05 14:11:00,71.0,56.4,29.98,NW,320,0.0,1.0,60,0.00,,BKN250,0.00,VWS V14.01,2013-09-05 18:11:00,
2013-09-05 14:16:00,70.6,55.6,29.98,WNW,298,1.0,3.0,59,0.00,,BKN250,0.00,VWS V14.01,2013-09-05 18:16:00,
2013-09-05 14:21:00,70.1,54.2,29.98,North,5,1.0,1.0,57,0.00,,BKN250,0.00,VWS V14.01,2013-09-05 18:21:00,
2013-09-05 14:26:00,69.5,53.1,29.98,North,354,0.0,6.0,56,0.00,,BKN250,0.00,VWS V14.01,2013-09-05 18:26:00,
2013-09-05 14:31:00,69.3,53.9,29.98,North,8,2.0,3.0,58,0.00,,BKN250,0.00,VWS V14.01,2013-09-05 18:31:00,
2013-09-05 14:36:00,70.0,53.1,29.98,SE,127,0.0,2.0,55,0.00,,BKN250,0.00,VWS V14.01,2013-09-05 18:36:00,
2013-09-05 14:41:00,71.0,53.5,29.98,NE,41,2.0,3.0,54,0.00,,BKN250,0.00,VWS V14.01,2013-09-05 18:41:00,
2013-09-05 14:46:00,71.1,53.6,29.98,West,280,3.0,4.0,54,0.00,,BKN250,0.00,VWS V14.01,2013-09-05 18:46:00,
2013-09-05 14:51:00,71.0,53.0,29.98,NNE,32,2.0,2.0,53,0.00,,BKN250,0.00,VWS V14.01,2013-09-05 18:51:00,
2013-09-05 14:56:00,70.6,53.2,29.98,West,281,1.0,3.0,54,0.00,,BKN250,0.00,VWS V14.01,2013-09-05 18:56:00,
2013-09-05 15:01:00,70.2,52.3,29.98,North,354,2.0,4.0,53,0.00,,BKN250,0.00,VWS V14.01,2013-09-05 19:01:00,
2013-09-05 15:06:00,70.6,53.2,29.98,NE,42,0.0,4.0,54,0.00,,BKN250,0.00,VWS V14.01,2013-09-05 19:06:00,
2013-09-05 15:11:00,70.4,51.4,29.98,NNE,18,0.0,2.0,51,0.00,,BKN250,0.00,VWS V14.01,2013-09-05 19:11:00,
2013-09-05 15:16:00,70.7,53.8,29.98,NW,304,1.0,2.0,55,0.00,,BKN250,0.00,VWS V14.01,2013-09-05 19:16:00,
2013-09-05 15:21:00,70.7,53.3,29.99,WNW,282,0.0,1.0,54,0.00,,BKN250,0.00,VWS V14.01,2013-09-05 19:21:00,
2013-09-05 15:26:00,70.4,54.0,29.99,NNE,24,2.0,5.0,56,0.00,,BKN250,0.00,VWS V14.01,2013-09-05 19:26:00,
2013-09-05 15:31:00,70.1,51.7,29.99,ENE,62,0.0,2.0,52,0.00,,BKN250,0.00,VWS V14.01,2013-09-05 19:31:00,
2013-09-05 15:36:00,69.9,51.0,29.99,SW,220,2.0,5.0,51,0.00,,BKN250,0.00,VWS V14.01,2013-09-05 19:36:00,
2013-09-05 15:41:00,69.6,51.2,29.99,SW,227,1.0,5.0,52,0.00,,BKN250,0.00,VWS V14.01,2013-09-05 19:41:00,
2013-09-05 15:46:00,69.8,52.4,29.99,ENE,64,4.0,13.0,54,0.00,,BKN250,0.00,VWS V14.01,2013-09-05 19:46:00,
2013-09-05 15:51:00,69.5,51.1,30.00,West,263,1.0,3.0,52,0.00,,BKN250,0.00,VWS V14.01,2013-09-05 19:51:00,
2013-09-05 15:56:00,69.6,51.7,29.99,North,350,4.0,4.0,53,0.00,,BKN250,0.00,VWS V14.01,2013-09-05 19:56:00,
2013-09-05 16:01:00,69.2,50.3,30.00,South,181,2.0,10.0,51,0.00,,BKN250,0.00,VWS V14.01,2013-09-05 20:01:00,
2013-09-05 16:06:00,68.5,51.2,30.00,SSW,196,0.0,3.0,54,0.00,,BKN250,0.00,VWS V14.01,2013-09-05 20:06:00,
2013-09-05 16:11:00,68.0,50.8,30.00,NNE,29,3.0,5.0,54,0.00,,BKN250,0.00,VWS V14.01,2013-09-05 20:11:00,
2013-09-05 16:16:00,68.0,51.7,30.00,SE,133,0.0,6.0,56,0.00,,BKN250,0.00,VWS V14.01,2013-09-05 20:16:00,
2013-09-05 16:21:00,68.5,51.7,30.00,NNW,327,3.0,6.0,55,0.00,,BKN250,0.00,VWS V14.01,2013-09-05 20:21:00,
2013-09-05 16:26:00,68.7,49.9,30.00,West,277,2.0,14.0,51,0.00,,BKN250,0.00,VWS V14.01,2013-09-05 20:26:00,
2013-09-05 16:31:00,68.2,49.9,30.00,South,177,1.0,3.0,52,0.00,,BKN250,0.00,VWS V14.01,2013-09-05 20:31:00,
2013-09-05 16:36:00,67.7,50.0,30.01,North,8,0.0,3.0,53,0.00,,BKN250,0.00,VWS V14.01,2013-09-05 20:36:00,
2013-09-05 16:41:00,67.0,48.8,30.01,SW,233,5.0,5.0,52,0.00,,BKN250,0.00,VWS V14.01,2013-09-05 20:41:00,
2013-09-05 16:46:00,66.7,48.5,30.01,North,1,4.0,4.0,52,0.00,,BKN250,0.00,VWS V14.01,2013-09-05 20:46:00,
2013-09-05 16:51:00,66.7,50.0,30.01,North,351,2.0,4.0,55,0.00,,BKN250,0.00,VWS V14.01,2013-09-05 20:51:00,
2013-09-05 16:56:00,66.7,50.0,30.01,North,1,4.0,4.0,55,0.00,,BKN250,0.00,VWS V14.01,2013-09-05 20:56:00,
2013-09-05 17:01:00,66.9,48.7,30.01,NW,323,2.0,5.0,52,0.00,,BKN250,0.00,VWS V14.01,2013-09-05 21:01:00,
2013-09-05 17:06:00,67.2,48.5,30.01,ENE,62,4.0,6.0,51,0.00,,BKN250,0.00,VWS V14.01,2013-09-05 21:06:00,
2013-09-05 17:11:00,67.4,48.7,30.02,WNW,292,1.0,6.0,51,0.00,,BKN250,0.00,VWS V14.01,2013-09-05 21:11:00,
2013-09-05 17:16:00,67.2,48.5,30.01,NE,40,0.0,4.0,51,0.00,,BKN250,0.00,VWS V14.01,2013-09-05 21:16:00,
2013-09-05 17:21:00,67.4,48.7,30.02,WSW,239,1.0,2.0,51,0.00,,BKN250,0.00,VWS V14.01,2013-09-05 21:21:00,
2013-09-05 17:26:00,67.4,48.7,30.02,East,91,0.0,2.0,51,0.00,,BKN250,0.00,VWS V14.01,2013-09-05 21:26:00,
2013-09-05 17:31:00,67.0,48.3,30.02,NNE,16,0.0,4.0,51,0.00,,BKN250,0.00,VWS V14.01,2013-09-05 21:31:00,
2013-09-05 17:36:00,66.9,47.1,30.03,WNW,284,1.0,5.0,49,0.00,,BKN250,0.00,VWS V14.01,2013-09-05 21:36:00,
2013-09-05 17:41:00,66.5,46.2,30.02,WSW,250,0.0,2.0,48,0.00,,BKN250,0.00,VWS V14.01,2013-09-05 21:41:00,
2013-09-05 17:46:00,66.4,47.7,30.02,North,359,2.0,2.0,51,0.00,,BKN250,0.00,VWS V14.01,2013-09-05 21:46:00,
2013-09-05 17:51:00,66.2,47.6,30.02,SSW,205,0.0,3.0,51,0.00,,BKN250,0.00,VWS V14.01,2013-09-05 21:51:00,
2013-09-05 17:56:00,65.6,47.0,30.02,WNW,283,1.0,2.0,51,0.00,,BKN250,0.00,VWS V14.01,2013-09-05 21:56:00,
2013-09-05 18:01:00,64.9,46.4,30.03,West,279,0.0,1.0,51,0.00,,FEW110,0.00,VWS V14.01,2013-09-05 22:01:00,
2013-09-05 18:06:00,64.8,46.8,30.03,North,354,1.0,2.0,52,0.00,,FEW110,0.00,VWS V14.01,2013-09-05 22:06:00,
2013-09-05 18:11:00,64.3,46.8,30.03,East,99,0.0,1.0,53,0.00,,FEW110,0.00,VWS V14.01,2013-09-05 22:11:00,
2013-09-05 18:16:00,63.8,47.3,30.03,ENE,70,0.0,1.0,55,0.00,,FEW110,0.00,VWS V14.01,2013-09-05 22:16:00,
2013-09-05 18:21:00,63.5,47.1,30.04,ENE,74,0.0,1.0,55,0.00,,FEW110,0.00,VWS V14.01,2013-09-05 22:21:00,
2013-09-05 18:26:00,63.4,47.0,30.03,North,352,0.0,2.0,55,0.00,,FEW110,0.00,VWS V14.01,2013-09-05 22:26:00,
2013-09-05 18:31:00,62.9,48.4,30.04,North,354,0.0,0.0,59,0.00,,FEW110,0.00,VWS V14.01,2013-09-05 22:31:00,
2013-09-05 18:36:00,62.4,48.8,30.04,North,357,0.0,0.0,61,0.00,,FEW110,0.00,VWS V14.01,2013-09-05 22:36:00,
2013-09-05 18:41:00,62.0,48.0,30.04,NNW,335,0.0,2.0,60,0.00,,FEW110,0.00,VWS V14.01,2013-09-05 22:41:00,
2013-09-05 18:46:00,61.7,47.7,30.04,NNW,331,1.0,2.0,60,0.00,,FEW110,0.00,VWS V14.01,2013-09-05 22:46:00,
2013-09-05 18:51:00,61.5,48.4,30.04,NNE,29,0.0,0.0,62,0.00,,FEW110,0.00,VWS V14.01,2013-09-05 22:51:00,
2013-09-05 18:56:00,61.2,48.9,30.05,NNE,29,0.0,0.0,64,0.00,,FEW110,0.00,VWS V14.01,2013-09-05 22:56:00,
2013-09-05 19:01:00,60.8,47.7,30.05,NNE,29,0.0,0.0,62,0.00,,FEW110,0.00,VWS V14.01,2013-09-05 23:01:00,
2013-09-05 19:06:00,60.3,48.1,30.05,NNE,29,0.0,0.0,64,0.00,,CLR,0.00,VWS V14.01,2013-09-05 23:06:00,
2013-09-05 19:11:00,59.8,48.0,30.05,North,5,0.0,0.0,65,0.00,,CLR,0.00,VWS V14.01,2013-09-05 23:11:00,
2013-09-05 19:16:00,59.2,48.3,30.05,North,5,0.0,0.0,67,0.00,,CLR,0.00,VWS V14.01,2013-09-05 23:16:00,
2013-09-05 19:21:00,58.6,48.9,30.05,North,6,0.0,2.0,70,0.00,,CLR,0.00,VWS V14.01,2013-09-05 23:21:00,
2013-09-05 19:26:00,58.3,48.2,30.06,North,6,0.0,0.0,69,0.00,,CLR,0.00,VWS V14.01,2013-09-05 23:26:00,
2013-09-05 19:31:00,57.9,48.2,30.06,North,6,0.0,0.0,70,0.00,,CLR,0.00,VWS V14.01,2013-09-05 23:31:00,
2013-09-05 19:36:00,57.6,47.5,30.06,NNW,334,0.0,2.0,69,0.00,,CLR,0.00,VWS V14.01,2013-09-05 23:36:00,
2013-09-05 19:41:00,57.3,46.8,30.06,NNW,334,0.0,1.0,68,0.00,,CLR,0.00,VWS V14.01,2013-09-05 23:41:00,
2013-09-05 19:46:00,57.3,48.0,30.07,NNW,332,0.0,0.0,71,0.00,,CLR,0.00,VWS V14.01,2013-09-05 23:46:00,
2013-09-05 19:51:00,57.1,47.8,30.07,NNW,332,0.0,0.0,71,0.00,,CLR,0.00,VWS V14.01,2013-09-05 23:51:00,
2013-09-05 19:56:00,57.0,48.1,30.07,NNW,332,0.0,0.0,72,0.00,,CLR,0.00,VWS V14.01,2013-09-05 23:56:00,
2013-09-05 20:01:00,56.7,47.4,30.08,NNW,331,0.0,0.0,71,0.00,,CLR,0.00,VWS V14.01,2013-09-06 00:01:00,
2013-09-05 20:06:00,56.9,48.0,30.08,NNW,331,0.0,0.0,72,0.00,,CLR,0.00,VWS V14.01,2013-09-06 00:06:00,
2013-09-05 20:11:00,56.8,47.9,30.08,NNW,330,0.0,0.0,72,0.00,,CLR,0.00,VWS V14.01,2013-09-06 00:11:00,
2013-09-05 20:16:00,56.8,47.5,30.08,NNW,341,2.0,3.0,71,0.00,,CLR,0.00,VWS V14.01,2013-09-06 00:16:00,
2013-09-05 20:21:00,57.0,46.6,30.08,NNW,339,0.0,0.0,68,0.00,,CLR,0.00,VWS V14.01,2013-09-06 00:21:00,
2013-09-05 20:26:00,57.0,46.6,30.09,NNE,15,0.0,0.0,68,0.00,,CLR,0.00,VWS V14.01,2013-09-06 00:26:00,
2013-09-05 20:31:00,56.8,46.8,30.08,NNE,15,0.0,0.0,69,0.00,,CLR,0.00,VWS V14.01,2013-09-06 00:31:00,
2013-09-05 20:36:00,56.7,46.3,30.09,NNE,15,0.0,0.0,68,0.00,,CLR,0.00,VWS V14.01,2013-09-06 00:36:00,
2013-09-05 20:41:00,56.5,46.1,30.09,NNE,15,0.0,0.0,68,0.00,,CLR,0.00,VWS V14.01,2013-09-06 00:41:00,
2013-09-05 20:46:00,56.4,46.0,30.09,NNE,15,0.0,0.0,68,0.00,,CLR,0.00,VWS V14.01,2013-09-06 00:46:00,
2013-09-05 20:51:00,56.1,46.1,30.09,NNE,15,0.0,0.0,69,0.00,,CLR,0.00,VWS V14.01,2013-09-06 00:51:00,
2013-09-05 20:56:00,55.6,46.0,30.10,NNE,17,0.0,1.0,70,0.00,,CLR,0.00,VWS V14.01,2013-09-06 00:56:00,
2013-09-05 21:01:00,55.4,46.2,30.10,NNE,16,0.0,1.0,71,0.00,,CLR,0.00,VWS V14.01,2013-09-06 01:01:00,
2013-09-05 21:06:00,55.0,46.5,30.09,North,356,2.0,2.0,73,0.00,,CLR,0.00,VWS V14.01,2013-09-06 01:06:00,
2013-09-05 21:11:00,54.9,46.4,30.10,North,356,3.0,3.0,73,0.00,,CLR,0.00,VWS V14.01,2013-09-06 01:11:00,
2013-09-05 21:16:00,54.9,46.4,30.10,North,356,0.0,1.0,73,0.00,,CLR,0.00,VWS V14.01,2013-09-06 01:16:00,
2013-09-05 21:21:00,55.0,46.9,30.10,North,356,0.0,1.0,74,0.00,,CLR,0.00,VWS V14.01,2013-09-06 01:21:00,
2013-09-05 21:26:00,54.9,47.5,30.10,North,356,0.0,0.0,76,0.00,,CLR,0.00,VWS V14.01,2013-09-06 01:26:00,
2013-09-05 21:31:00,54.8,46.7,30.11,North,358,1.0,1.0,74,0.00,,CLR,0.00,VWS V14.01,2013-09-06 01:31:00,
2013-09-05 21:36:00,54.8,46.7,30.11,North,357,0.0,0.0,74,0.00,,CLR,0.00,VWS V14.01,2013-09-06 01:36:00,
2013-09-05 21:41:00,54.8,47.0,30.11,NNW,347,0.0,0.0,75,0.00,,CLR,0.00,VWS V14.01,2013-09-06 01:41:00,
2013-09-05 21:46:00,54.6,46.5,30.12,NNW,347,0.0,0.0,74,0.00,,CLR,0.00,VWS V14.01,2013-09-06 01:46:00,
2013-09-05 21:51:00,54.5,46.0,30.11,NNW,345,0.0,0.0,73,0.00,,CLR,0.00,VWS V14.01,2013-09-06 01:51:00,
2013-09-05 21:56:00,54.5,46.4,30.12,NNW,346,0.0,0.0,74,0.00,,CLR,0.00,VWS V14.01,2013-09-06 01:56:00,
2013-09-05 22:01:00,54.3,46.6,30.12,NNW,342,0.0,0.0,75,0.00,,CLR,0.00,VWS V14.01,2013-09-06 02:01:00,
2013-09-05 22:06:00,54.2,46.8,30.12,NNW,341,0.0,0.0,76,0.00,,CLR,0.00,VWS V14.01,2013-09-06 02:06:00,
2013-09-05 22:11:00,54.1,47.1,30.12,NNW,339,0.0,0.0,77,0.00,,CLR,0.00,VWS V14.01,2013-09-06 02:11:00,
2013-09-05 22:16:00,53.9,46.5,30.12,NNW,340,0.0,0.0,76,0.00,,CLR,0.00,VWS V14.01,2013-09-06 02:16:00,
2013-09-05 22:21:00,53.6,45.9,30.12,NNW,339,0.0,0.0,75,0.00,,CLR,0.00,VWS V14.01,2013-09-06 02:21:00,
2013-09-05 22:26:00,53.6,46.2,30.12,NNW,335,0.0,2.0,76,0.00,,CLR,0.00,VWS V14.01,2013-09-06 02:26:00,
2013-09-05 22:31:00,53.5,46.5,30.13,NNW,332,0.0,0.0,77,0.00,,CLR,0.00,VWS V14.01,2013-09-06 02:31:00,
2013-09-05 22:36:00,53.3,45.6,30.13,North,352,0.0,1.0,75,0.00,,CLR,0.00,VWS V14.01,2013-09-06 02:36:00,
2013-09-05 22:41:00,53.3,45.6,30.13,North,353,0.0,1.0,75,0.00,,CLR,0.00,VWS V14.01,2013-09-06 02:41:00,
2013-09-05 22:46:00,53.3,45.6,30.13,North,353,0.0,0.0,75,0.00,,CLR,0.00,VWS V14.01,2013-09-06 02:46:00,
2013-09-05 22:51:00,53.3,45.6,30.13,North,353,0.0,0.0,75,0.00,,CLR,0.00,VWS V14.01,2013-09-06 02:51:00,
2013-09-05 22:56:00,53.2,45.1,30.13,North,353,0.0,1.0,74,0.00,,CLR,0.00,VWS V14.01,2013-09-06 02:56:00,
2013-09-05 23:01:00,53.1,45.4,30.13,North,354,0.0,0.0,75,0.00,,CLR,0.00,VWS V14.01,2013-09-06 03:01:00,
2013-09-05 23:25:00,52.8,45.5,30.13,North,0,0.0,3.0,76,0.00,,CLR,0.00,VWS V14.01,2013-09-06 03:25:00,
2013-09-05 23:31:00,52.8,45.5,30.14,North,357,0.0,0.0,76,0.00,,CLR,0.00,VWS V14.01,2013-09-06 03:31:00,
2013-09-05 23:41:00,52.6,45.3,30.14,NW,318,0.0,1.0,76,0.00,,CLR,0.00,VWS V14.01,2013-09-06 03:41:00,
2013-09-05 23:51:00,52.6,46.0,30.14,NW,318,1.0,1.0,78,0.00,,CLR,0.00,VWS V14.01,2013-09-06 03:51:00,